{"data":{"norad_id":68924,"epoch":"2026-05-25T02:15:47.471616Z","epoch_age_seconds":57091,"freshness":"FRESH","line1":"1 68924U 26098F   26145.09429944 -.00020338  00000+0 -66284-3 0  9999","line2":"2 68924  51.8753 179.4740 0016063  68.0481 292.2208 15.30669114  3795","mean_motion":15.30669114,"eccentricity":0.0016063,"inclination_deg":51.8753,"raan_deg":179.474,"arg_perigee_deg":68.0481,"mean_anomaly_deg":292.2208,"bstar":-0.00066284,"rev_number":379,"period_min":94.07650463639,"perigee_km":462.80844724223,"apogee_km":484.82102739354,"semimajor_km":6851.9517373179,"source":"CELESTRAK","updated_at":"2026-05-25T13:38:08.793440Z"}}